Weather History for Omak, WA

Change the Weather History Date:

Saturday, January 25, 2014

  Actual Average Record
Temperature  
Mean Temperature 30 °F 28 °F  
Max Temperature 31 °F 35 °F 50 °F (2002)
Min Temperature 29 °F 22 °F -22 °F (1949)
Degree Days  
Heating Degree Days 35 37  
Month to date heating degree days 853 967  
Since 1 July heating degree days 3753 3716  
Cooling Degree Days 0 0  
Month to date cooling degree days 0 0  
Year to date cooling degree days 0 0  
Moisture  
Dew Point 25 °F    
Average Humidity 82    
Maximum Humidity 92    
Minimum Humidity 72    
Precipitation  
Precipitation 0.00 in 0.03 in 0.28 in (1942)
Month to date precipitation 0.16 1.49  
Year to date precipitation 0.16 1.49  
Sea Level Pressure  
Sea Level Pressure 30.52 in    
Wind  
Wind Speed 2 mph (South)    
Max Wind Speed 6 mph    
Max Gust Speed 7 mph    
Visibility 10 miles    
Events      
T = Trace of Precipitation, MM = Missing Value Source: NWS Daily Summary

Daily Weather History Graph

Daily Weather History Graph

Search for Another Location

Airport:

Trip Planner

Search our weather history database for the weather conditions in past years. The results will help you decide how hot, cold, wet, or windy it might be!

Date:

Astronomy

Jan. 25, 2014 Rise Set
Actual Time 7:35 AM PST 4:45 PM PST
Civil Twilight 7:01 AM PST 5:20 PM PST
Nautical Twilight 6:22 AM PST 5:58 PM PST
Astronomical Twilight 5:46 AM PST 6:35 PM PST
Moon 2:11 AM PST (1/25) 11:50 AM PST (1/25)
Length of Visible Light 10h 19m
Length of Day
9h 10m
Waning Crescent, 33% of the Moon is Illuminated
Jan 25
Waning Crescent
Jan 30
New
Feb 6
First Quarter
Feb 14
Full
Feb 22
Last Quarter

Hourly Weather History & Observations

Time (PST) Temp. Windchill Dew Point Humidity Pressure Visibility Wind Dir Wind Speed Gust Speed Precip Events Conditions
12:53 AM 30.0 °F - 26.1 °F 85% 30.62 in 10.0 mi Calm Calm - N/A   Overcast
1:53 AM 30.0 °F - 26.1 °F 85% 30.62 in 10.0 mi Calm Calm - N/A   Overcast
2:53 AM 30.0 °F - 26.1 °F 85% 30.60 in 10.0 mi Calm Calm - N/A   Overcast
3:53 AM 30.0 °F 26.5 °F 26.1 °F 85% 30.59 in 10.0 mi South 3.5 mph - N/A   Overcast
4:53 AM 28.9 °F 23.9 °F 26.1 °F 89% 30.58 in 10.0 mi South 4.6 mph - N/A   Overcast
5:53 AM 28.9 °F 23.9 °F 26.1 °F 89% 30.58 in 10.0 mi South 4.6 mph - N/A   Overcast
6:53 AM 28.9 °F 23.9 °F 26.1 °F 89% 30.57 in 10.0 mi South 4.6 mph - N/A   Overcast
7:49 AM 28.4 °F 23.3 °F 24.8 °F 86% 30.52 in 10.0 mi SSE 4.6 mph - N/A   Overcast
7:53 AM 28.9 °F 23.9 °F 25.0 °F 85% 30.57 in 10.0 mi SSE 4.6 mph - N/A   Overcast
8:13 AM 28.9 °F 23.9 °F 25.0 °F 85% 30.52 in 10.0 mi SSE 4.6 mph - N/A   Overcast
8:53 AM 30.0 °F 26.5 °F 25.0 °F 82% 30.56 in 10.0 mi SSE 3.5 mph - N/A   Overcast
9:06 AM 30.0 °F 26.5 °F 25.0 °F 82% 30.51 in 10.0 mi South 3.5 mph - N/A   Overcast
9:53 AM 30.0 °F 25.2 °F 24.1 °F 79% 30.57 in 10.0 mi SSE 4.6 mph - N/A   Overcast
10:53 AM 30.0 °F 25.2 °F 23.0 °F 75% 30.56 in 10.0 mi South 4.6 mph - N/A   Overcast
11:53 AM 30.0 °F 25.2 °F 23.0 °F 75% 30.54 in 10.0 mi South 4.6 mph - N/A   Overcast
12:53 PM 30.0 °F - 24.1 °F 79% 30.52 in 10.0 mi Calm Calm - N/A   Overcast
1:53 PM 30.9 °F 27.5 °F 24.1 °F 76% 30.50 in 10.0 mi SSW 3.5 mph - N/A   Overcast
2:53 PM 30.9 °F 27.5 °F 24.1 °F 76% 30.50 in 10.0 mi South 3.5 mph - N/A   Overcast
3:53 PM 30.9 °F - 25.0 °F 79% 30.49 in 10.0 mi Calm Calm - N/A   Overcast
4:53 PM 30.9 °F - 24.1 °F 76% 30.49 in 10.0 mi Calm Calm - N/A   Overcast
5:53 PM 30.0 °F - 25.0 °F 82% 30.47 in 10.0 mi Calm Calm - N/A   Overcast
6:53 PM 30.0 °F - 25.0 °F 82% 30.46 in 10.0 mi Calm Calm - N/A   Overcast
7:53 PM 30.0 °F - 25.0 °F 82% 30.45 in 10.0 mi Calm Calm - N/A   Overcast
8:53 PM 30.0 °F - 25.0 °F 82% 30.43 in 10.0 mi Calm Calm - N/A   Overcast
9:53 PM 30.0 °F 26.5 °F 25.0 °F 82% 30.43 in 10.0 mi South 3.5 mph - N/A   Overcast
10:53 PM 30.0 °F - 25.0 °F 82% 30.41 in 10.0 mi Calm Calm - N/A   Overcast
11:53 PM 30.0 °F - 25.0 °F 82% 30.41 in 10.0 mi Calm Calm - N/A   Overcast